• In Italy
  • List of Countries
  • For 7 days
  • Water Temperature
  • Satellite Maps
  • Weather Map
  • Weather Widgets
  • user-avatar
    Login

    Hourly Weather Vanadzor

    Today, 21 September, Friday

    Time Temperature Precipitation Wind Pressure Humidity
    00:00 +12°C° 0 mm 2 mps 638 mmHg 91%
    01:00 +12°C° 0 mm 1 mps 638 mmHg 92%
    02:00 +12°C° 0 mm 1 mps 638 mmHg 93%
    03:00 +12°C° 0 mm 1 mps 638 mmHg 93%
    04:00 +12°C° 0 mm 1 mps 638 mmHg 94%
    05:00 +12°C° 0 mm 1 mps 638 mmHg 94%
    06:00 +12°C° 0 mm 1 mps 638 mmHg 94%
    07:00 +13°C° 0 mm 1 mps 638 mmHg 88%
    08:00 +14°C° 0 mm 1 mps 639 mmHg 83%
    09:00 +16°C° 0 mm 1 mps 639 mmHg 76%
    10:00 +18°C° 0.2 mm 1 mps 639 mmHg 70%
    11:00 +19°C° 0.2 mm 2 mps 639 mmHg 65%
    12:00 +20°C° 0.2 mm 2 mps 639 mmHg 59%
    13:00 +20°C° 0.8 mm 2 mps 639 mmHg 58%
    14:00 +20°C° 0.8 mm 2 mps 639 mmHg 57%
    15:00 +21°C° 0 mm 2 mps 639 mmHg 56%
    16:00 +19°C° 0.8 mm 2 mps 638 mmHg 63%
    17:00 +18°C° 0.8 mm 2 mps 638 mmHg 71%
    18:00 +16°C° 0.8 mm 1 mps 638 mmHg 78%
    19:00 +15°C° 0.3 mm 1 mps 638 mmHg 82%
    20:00 +15°C° 0.3 mm 1 mps 638 mmHg 86%
    21:00 +14°C° 0.3 mm 1 mps 638 mmHg 90%
    22:00 +14°C° 0.2 mm 1 mps 638 mmHg 90%
    23:00 +13°C° 0.2 mm 1 mps 638 mmHg 91%

    Tomorrow, 22 September, Saturday

    Time Temperature Precipitation Wind Pressure Humidity
    00:00 +13°C° 0.2 mm 1 mps 638 mmHg 91%
    01:00 +13°C° 0.2 mm 1 mps 638 mmHg 92%
    02:00 +13°C° 0.2 mm 1 mps 638 mmHg 92%
    03:00 +13°C° 0.2 mm 1 mps 638 mmHg 92%
    04:00 +13°C° 0.2 mm 1 mps 638 mmHg 92%
    05:00 +13°C° 0.2 mm 1 mps 638 mmHg 92%
    06:00 +12°C° 0.2 mm 1 mps 638 mmHg 92%
    07:00 +14°C° 0.2 mm 1 mps 638 mmHg 85%
    08:00 +15°C° 0.2 mm 1 mps 639 mmHg 78%
    09:00 +16°C° 0.2 mm 2 mps 639 mmHg 71%
    10:00 +17°C° 0.6 mm 2 mps 639 mmHg 67%
    11:00 +18°C° 0.6 mm 2 mps 639 mmHg 63%
    12:00 +19°C° 0.6 mm 2 mps 639 mmHg 59%
    13:00 +19°C° 0.7 mm 2 mps 639 mmHg 59%
    14:00 +20°C° 0.7 mm 2 mps 639 mmHg 59%
    15:00 +20°C° 0.7 mm 2 mps 639 mmHg 59%
    16:00 +18°C° 0.9 mm 2 mps 638 mmHg 67%
    17:00 +17°C° 0.9 mm 2 mps 638 mmHg 75%
    18:00 +15°C° 0.9 mm 2 mps 637 mmHg 83%
    19:00 +15°C° 0.6 mm 1 mps 638 mmHg 84%
    20:00 +15°C° 0.6 mm 1 mps 638 mmHg 86%
    21:00 +14°C° 0.6 mm 1 mps 638 mmHg 87%
    22:00 +14°C° 0.2 mm 1 mps 638 mmHg 89%
    23:00 +14°C° 0.2 mm 1 mps 638 mmHg 91%

    Day after tomorrow, 23 September, Sunday

    Time Temperature Precipitation Wind Pressure Humidity
    00:00 +13°C° 0.2 mm 1 mps 638 mmHg 92%
    01:00 +13°C° 0.1 mm 1 mps 638 mmHg 93%
    02:00 +13°C° 0.1 mm 1 mps 637 mmHg 94%
    03:00 +13°C° 0.1 mm 1 mps 637 mmHg 94%
    04:00 +13°C° 0.1 mm 1 mps 637 mmHg 94%
    05:00 +12°C° 0.1 mm 1 mps 637 mmHg 94%
    06:00 +12°C° 0.1 mm 1 mps 637 mmHg 94%
    07:00 +14°C° 0 mm 1 mps 637 mmHg 86%
    08:00 +15°C° 0 mm 1 mps 638 mmHg 78%
    09:00 +18°C° 0 mm 1 mps 638 mmHg 70%
    10:00 +19°C° 0.1 mm 1 mps 639 mmHg 64%
    11:00 +20°C° 0.1 mm 1 mps 639 mmHg 58%
    12:00 +21°C° 0.1 mm 2 mps 639 mmHg 51%
    13:00 +21°C° 0.3 mm 2 mps 639 mmHg 50%
    14:00 +21°C° 0.3 mm 2 mps 638 mmHg 49%
    15:00 +21°C° 0.3 mm 2 mps 638 mmHg 48%
    16:00 +19°C° 0.9 mm 2 mps 637 mmHg 57%
    17:00 +19°C° 0.9 mm 1 mps 637 mmHg 65%
    18:00 +16°C° 0.9 mm 1 mps 636 mmHg 74%
    19:00 +15°C° 0.7 mm 1 mps 637 mmHg 77%
    20:00 +14°C° 0.7 mm 1 mps 637 mmHg 80%
    21:00 +14°C° 0.7 mm 1 mps 637 mmHg 83%
    22:00 +13°C° 0.3 mm 1 mps 637 mmHg 84%
    23:00 +13°C° 0.3 mm 1 mps 637 mmHg 86%

    24 September, Monday

    Time Temperature Precipitation Wind Pressure Humidity
    00:00 +13°C° 0.3 mm 2 mps 637 mmHg 87%
    01:00 +12°C° 0 mm 2 mps 637 mmHg 88%
    02:00 +12°C° 0 mm 2 mps 637 mmHg 88%
    03:00 +12°C° 0 mm 2 mps 637 mmHg 89%
    04:00 +10°C° 0 mm 2 mps 637 mmHg 88%
    05:00 +10°C° 0 mm 2 mps 637 mmHg 87%
    06:00 +10°C° 0 mm 2 mps 637 mmHg 86%
    07:00 +13°C° 0 mm 1 mps 638 mmHg 75%
    08:00 +15°C° 0 mm 1 mps 639 mmHg 64%
    09:00 +18°C° 0 mm 1 mps 640 mmHg 53%
    10:00 +20°C° 0 mm 1 mps 640 mmHg 50%
    11:00 +21°C° 0 mm 1 mps 640 mmHg 46%
    12:00 +21°C° 0 mm 2 mps 640 mmHg 42%
    13:00 +21°C° 0 mm 2 mps 640 mmHg 42%
    14:00 +21°C° 0 mm 2 mps 639 mmHg 42%
    15:00 +21°C° 0 mm 2 mps 639 mmHg 42%
    16:00 +20°C° 0 mm 1 mps 638 mmHg 49%
    17:00 +19°C° 0 mm 1 mps 638 mmHg 55%
    18:00 +16°C° 0 mm 1 mps 637 mmHg 62%
    19:00 +15°C° 0 mm 1 mps 638 mmHg 66%
    20:00 +14°C° 0 mm 1 mps 638 mmHg 70%
    21:00 +14°C° 0 mm 2 mps 638 mmHg 74%
    22:00 +13°C° 0 mm 1 mps 638 mmHg 76%
    23:00 +13°C° 0 mm 1 mps 637 mmHg 78%

    25 September, Tuesday

    Time Temperature Precipitation Wind Pressure Humidity
    00:00 +13°C° 0 mm 1 mps 637 mmHg 80%
    01:00 +12°C° 0 mm 1 mps 637 mmHg 81%
    02:00 +12°C° 0 mm 1 mps 637 mmHg 81%
    03:00 +12°C° 0 mm 1 mps 637 mmHg 82%
    04:00 +12°C° 0 mm 1 mps 636 mmHg 82%
    05:00 +11°C° 0 mm 1 mps 636 mmHg 81%
    06:00 +11°C° 0 mm 1 mps 636 mmHg 81%
    07:00 +14°C° 0 mm 1 mps 637 mmHg 70%
    08:00 +16°C° 0 mm 1 mps 638 mmHg 60%
    09:00 +20°C° 0 mm 1 mps 638 mmHg 49%
    10:00 +20°C° 0 mm 2 mps 638 mmHg 45%
    11:00 +21°C° 0 mm 2 mps 638 mmHg 40%
    12:00 +24°C° 0 mm 2 mps 638 mmHg 36%
    13:00 +24°C° 0 mm 2 mps 638 mmHg 35%
    14:00 +24°C° 0 mm 2 mps 638 mmHg 34%
    15:00 +25°C° 0 mm 2 mps 638 mmHg 33%
    16:00 +21°C° 0 mm 2 mps 637 mmHg 41%
    17:00 +20°C° 0 mm 1 mps 636 mmHg 49%
    18:00 +18°C° 0 mm 1 mps 636 mmHg 57%
    19:00 +16°C° 0 mm 1 mps 636 mmHg 62%
    20:00 +15°C° 0 mm 1 mps 636 mmHg 67%
    21:00 +15°C° 0 mm 2 mps 637 mmHg 71%
    22:00 +14°C° 0 mm 2 mps 636 mmHg 73%
    23:00 +14°C° 0 mm 1 mps 636 mmHg 76%

    26 September, Wednesday

    Time Temperature Precipitation Wind Pressure Humidity
    00:00 +14°C° 0 mm 1 mps 636 mmHg 78%
    01:00 +13°C° 0 mm 1 mps 636 mmHg 78%
    02:00 +13°C° 0 mm 1 mps 636 mmHg 79%
    03:00 +13°C° 0 mm 1 mps 636 mmHg 80%
    04:00 +12°C° 0 mm 1 mps 636 mmHg 80%
    05:00 +12°C° 0 mm 1 mps 636 mmHg 80%
    06:00 +12°C° 0 mm 1 mps 636 mmHg 80%
    07:00 +14°C° 0 mm 1 mps 636 mmHg 72%
    08:00 +16°C° 0 mm 2 mps 637 mmHg 63%
    09:00 +18°C° 0 mm 2 mps 638 mmHg 54%
    10:00 +19°C° 0 mm 2 mps 638 mmHg 51%
    11:00 +20°C° 0 mm 2 mps 638 mmHg 49%
    12:00 +21°C° 0 mm 3 mps 638 mmHg 46%
    13:00 +20°C° 0.1 mm 3 mps 637 mmHg 47%
    14:00 +20°C° 0.1 mm 3 mps 637 mmHg 48%
    15:00 +20°C° 0.1 mm 3 mps 636 mmHg 49%
    16:00 +18°C° 0.2 mm 3 mps 636 mmHg 57%
    17:00 +17°C° 0.2 mm 3 mps 636 mmHg 65%
    18:00 +15°C° 0.2 mm 2 mps 635 mmHg 72%
    19:00 +14°C° 0.1 mm 2 mps 635 mmHg 76%
    20:00 +13°C° 0.1 mm 2 mps 635 mmHg 79%
    21:00 +12°C° 0.1 mm 2 mps 635 mmHg 82%
    22:00 +12°C° 0 mm 2 mps 635 mmHg 83%
    23:00 +12°C° 0 mm 2 mps 635 mmHg 84%
    Show more